User: anonymous   Login
Location: Oshawa
(43.9000°N, 78.8670°W)
Time: 23:19:19
(UTC-04:00)
Language:

CARTOSAT-1 - Orbit

View from above orbital plane
View from above orbital plane
View from above satellite
View from above satellite

Ground track
Ground track

The orbit data is extracted from the following two-line orbital elements,

1 28649U 05017A   17118.78119990 +.00000325 +00000-0 +45970-4 0  9993
2 28649 097.8630 193.9537 0001901 155.9617 204.1692 14.83452538648652
Epoch (UTC): 28 April 2017 18:44:55
Eccentricity: 0.0001901
inclination: 97.8630°
perigee height: 617 km
apogee height: 620 km
right ascension of ascending node: 193.9537°
argument of perigee: 155.9617°
revolutions per day: 14.83452538
mean anomaly at epoch: 204.1692°
orbit number at epoch: 64865

The dashed part of the orbit path shows where the satellite is in the earth's shadow,  

DLR